ATLAS 5 CENTAUR DEB, 52967

Orbit data source: Space-Track

ATLAS 5 CENTAUR DEB, 52967 is space debris in HEO originally from a launch on Wed, 17 Oct 2018 UTC launched from the Air Force Eastern Test Range (AFETR). Debris objects in space refer to the collection of defunct objects orbiting the Earth. Examples of debris include non-operational satellites, rocket bodies, and fragments generated from explosions, collisions, or faulty payload assembly.

Loading next visibility...
Identifier
52967, 2018-079GR
Orbit
HEO
Country
Flag of USUS
Related business
Flag of USUnited Launch Alliance/Lockheed Martin (US)
Manufacturer
ULA Decatur
Mission
Spacecraft
Bus & Motor
Unknown
Mass
Unknown
Launch date (UTC)
2018-10-17 (8 years ago)
Launch vehicle
Unknown
Launch site
Air Force Eastern Test Range (AFETR)
Object type
Payload
Rocket body
Debris
Shape & HBR
Unknown shape, 1.1 m
Radar Cross Section
RCS unknown

Expand to show TLE details & history
Last TLE update: 1 month ago

TLE from 1 month ago
0 ATLAS 5 CENTAUR DEB
1 52967U 18079GR  26193.01259894 -.00000097  00000-0  00000-0 0  9990
2 52967  13.2649  35.4426 4718647 320.3459  13.1554  1.78381518 26798
Epoch: 2026-07-12T00:18Z
TLE epoch observation values (Epoch: 2026-07-12T00:18:08.548Z)
Latitude
0.00011°
Longitude
100.98905°
Altitude
10,032.268 km
Speed
5.891 km/s
True Right ascension
02h 21m 46s
True Declination
0° 00' 00"
Sunlit
Object was in daylight at epoch
Visualization orbit readout
Latitude
Unknown
Longitude
Unknown
Altitude
Unknown
Speed
Unknown
Apparent Right ascension
Unknown
Apparent Declination
Unknown
Sunlit
N/A
Visualization observer readout
Local Sidereal Time
13:31:18
Azimuth
Unknown
Elevation
Unknown
Doppler factor
Unknown
Orbital elements
Apogee altitude
35,895.336 km
Perigee altitude
8,790.454 km
Semi-major axis
28,721.032 km
Eccentricity
0.47186
Inclination
13.2649°
RAAN
35.4426°
Arg. of periapsis
320.3459°
True anomaly
39.48675°
Mean anomaly
13.1554°
Eccentric anomaly
24.26674°
Mean motion
0.44591 °/min
Orbital period
807.35 mins
BSTAR
0
Loading maneuver chart data...
Computing Atmospheric mass density...

Documentation

Showing up to 5 results
|